Weather History for KLWT - May, 2013

Change the Weather History Date:

Sunday, May 5, 2013

  Actual Average Record
Temperature  
Mean Temperature 48 °F 47 °F  
Max Temperature 65 °F 60 °F 85 °F (1934)
Min Temperature 30 °F 34 °F 21 °F (1942)
Degree Days  
Heating Degree Days 17 18  
Month to date heating degree days 118 94  
Since 1 July heating degree days 7531 7601  
Cooling Degree Days 0 0  
Month to date cooling degree days 0 0  
Year to date cooling degree days 0 0  
Moisture  
Dew Point 28 °F    
Average Humidity 57    
Maximum Humidity 89    
Minimum Humidity 25    
Precipitation  
Precipitation 0.00 in 0.06 in 1.01 in (1986)
Month to date precipitation 0.27 0.33  
Year to date precipitation 3.63 3.74  
Snow  
Snow 0.00 in - - ()
Snow Depth 0.00 in    
Sea Level Pressure  
Sea Level Pressure 30.14 in    
Wind  
Wind Speed 8 mph (ESE)    
Max Wind Speed 17 mph    
Max Gust Speed 22 mph    
Visibility 10 miles    
Events      
T = Trace of Precipitation, MM = Missing Value Source: NWS Daily Summary

Daily Weather History Graph

Daily Weather History Graph

Search for Another Location

Airport or City:

Trip Planner

Search our weather history database for the weather conditions in past years. The results will help you decide how hot, cold, wet, or windy it might be!

Date:

Astronomy

May. 05, 2013 Rise Set
Actual Time 5:55 AM MDT 8:34 PM MDT
Civil Twilight 5:20 AM MDT 9:09 PM MDT
Nautical Twilight 4:37 AM MDT 9:53 PM MDT
Astronomical Twilight 3:46 AM MDT 10:44 PM MDT
Moon 3:44 AM MDT (5/5) 4:22 PM MDT (5/5)
Length of Visible Light 15h 48m
Length of Day
14h 38m
Waning Crescent, 17% of the Moon is Illuminated
May 5
Waning Crescent
May 9
New
May 17
First Quarter
May 24
Full
May 31
Last Quarter

Hourly Weather History & Observations

Time (MDT) Temp. Windchill Dew Point Humidity Pressure Visibility Wind Dir Wind Speed Gust Speed Precip Events Conditions
12:54 AM 36.0 °F - 30.9 °F 82% 30.27 in 10.0 mi Calm Calm - N/A   Clear
1:54 AM 34.0 °F 31.0 °F 30.0 °F 85% 30.26 in 10.0 mi ESE 3.5 mph - N/A   Clear
2:54 AM 33.1 °F 27.7 °F 28.9 °F 85% 30.25 in 10.0 mi SE 5.8 mph - N/A   Clear
3:54 AM 32.0 °F 26.4 °F 27.0 °F 82% 30.25 in 10.0 mi ESE 5.8 mph - N/A   Clear
4:54 AM 32.0 °F 27.5 °F 27.0 °F 82% 30.24 in 10.0 mi ESE 4.6 mph - N/A   Clear
5:54 AM 32.0 °F 25.6 °F 27.0 °F 82% 30.22 in 10.0 mi ESE 6.9 mph - N/A   Clear
6:54 AM 35.1 °F 28.6 °F 28.9 °F 78% 30.22 in 10.0 mi ESE 8.1 mph - N/A   Clear
7:54 AM 42.1 °F 38.4 °F 30.9 °F 65% 30.20 in 10.0 mi ESE 5.8 mph - N/A   Clear
8:54 AM 51.1 °F - 30.0 °F 44% 30.17 in 10.0 mi ESE 9.2 mph - N/A   Clear
9:54 AM 55.0 °F - 27.0 °F 34% 30.16 in 10.0 mi SE 11.5 mph 16.1 mph N/A   Clear
10:54 AM 57.0 °F - 28.0 °F 33% 30.16 in 10.0 mi SE 10.4 mph 20.7 mph N/A   Clear
12:54 PM 60.1 °F - 28.0 °F 30% 30.13 in 10.0 mi SE 6.9 mph 19.6 mph N/A   Clear
1:54 PM 61.0 °F - 27.0 °F 27% 30.11 in 10.0 mi East 8.1 mph 19.6 mph N/A   Partly Cloudy
2:54 PM 62.1 °F - 27.0 °F 26% 30.09 in 10.0 mi SE 10.4 mph 16.1 mph N/A   Partly Cloudy
3:54 PM 64.0 °F - 28.0 °F 26% 30.07 in 10.0 mi East 15.0 mph 19.6 mph N/A   Partly Cloudy
4:54 PM 62.1 °F - 28.0 °F 28% 30.06 in 10.0 mi Calm Calm - N/A   Scattered Clouds
6:54 PM 62.1 °F - 28.0 °F 28% 30.03 in 10.0 mi East 11.5 mph - N/A   Clear
7:54 PM 57.9 °F - 28.0 °F 32% 30.02 in 10.0 mi ENE 10.4 mph - N/A   Clear
8:54 PM 51.1 °F - 28.0 °F 41% 30.03 in 10.0 mi ESE 12.7 mph - N/A   Clear
9:54 PM 46.0 °F 42.5 °F 28.0 °F 50% 30.04 in 10.0 mi ESE 6.9 mph - N/A   Clear
10:54 PM 43.0 °F 38.8 °F 28.0 °F 56% 30.05 in 10.0 mi East 6.9 mph - N/A   Clear
11:54 PM 41.0 °F 36.4 °F 27.0 °F 57% 30.04 in 10.0 mi ESE 6.9 mph - N/A   Clear